Time,B instrument,Bx,By,Bz,sigma B,Ion instrument,Status,Tp_par,Tp_perp,carrot,r_sun,clat,clong,earth_he_angle,n_p,vp_x,vp_y,vp_z,vth_p_par,vth_p_perp
1980-06-15 00:00:03,1,13.8571,-0.442857,1.40714,0.63459,1,1,69689.4,191079.0,1696,0.46620661,7.225626,357.67004,82.728638,14.3505,395.943,-0.121633,0.465681,33.9189,56.1648
1980-06-15 00:00:44,1,13.7071,-0.564286,1.18571,0.576849,1,1,73645.8,177097.0,1696,0.46620661,7.225626,357.66614,82.728638,13.8446,394.376,-7.61036,-0.683147,34.8684,54.0709
1980-06-15 00:01:24,1,13.2385,-2.29231,2.77692,1.23173,1,1,68533.9,178805.0,1696,0.46621567,7.2256212,357.65982,82.730133,13.5337,397.324,7.3963,-5.19781,33.6365,54.3311
1980-06-15 00:02:05,1,12.7429,-5.23571,-0.514286,2.36769,1,1,74274.5,165903.0,1696,0.46622473,7.2256165,357.6535,82.731628,12.5695,399.331,18.9646,-4.60943,35.0169,52.3341
1980-06-15 00:02:45,1,9.94286,-8.32857,-5.17143,1.16286,1,1,69079.4,219890.0,1696,0.46622473,7.2256165,357.6496,82.731628,14.2321,413.866,34.2683,41.529,33.7701,60.2506
1980-06-15 00:03:26,1,11.5643,-5.94286,-5.09286,1.02105,1,1,57859.3,206029.0,1696,0.46623379,7.2256117,357.64328,82.733124,13.549,406.831,24.2274,36.3379,30.9061,58.3207
1980-06-15 00:04:06,2,13.4525,-1.09,-2.85,2.09605,1,1,85722.7,181388.0,1696,0.46624291,7.2256069,357.64087,82.734619,13.2206,407.207,24.2956,32.2092,37.6189,54.722
1980-06-15 00:04:47,2,13.7275,-0.3925,-3.27,1.06103,1,1,70002.5,187758.0,1696,0.46624291,7.2256069,357.63306,82.734619,14.207,399.214,0.729531,23.3935,33.995,55.6746
1980-06-15 00:05:27,2,13.908,1.196,-1.96,1.12994,1,1,75706.2,178230.0,1696,0.46625197,7.2256021,357.62674,82.736115,14.8876,397.585,-23.5378,19.855,35.3528,54.2436
1980-06-15 00:06:08,2,13.876,-0.052,-2.208,1.24989,1,1,80469.8,161356.0,1696,0.46626103,7.2255974,357.62433,82.73761,13.7361,396.973,-15.218,23.0968,36.4481,51.6119
1980-06-15 00:06:48,2,14.058,-0.038,-1.552,0.859004,1,1,63832.2,176213.0,1696,0.46626103,7.2255974,357.61652,82.73761,13.6763,394.928,-6.80123,18.2636,32.4622,53.9357
1980-06-15 00:07:29,2,13.25,-0.7775,-5.04,0.343539,1,1,74049.8,176443.0,1696,0.46627015,7.2255926,357.61411,82.739105,13.2113,399.299,-3.4409,32.3281,34.9639,53.971
1980-06-15 00:08:09,2,12.798,-1.28,-5.53,1.22069,1,1,68472.7,181040.0,1696,0.46627921,7.2255878,357.60779,82.740601,12.3326,402.271,-1.19197,38.5232,33.6215,54.6695
1980-06-15 00:08:50,2,14.046,1.214,-0.282,0.885338,1,1,70482.6,169620.0,1696,0.46627921,7.2255878,357.60388,82.740601,13.3809,394.992,-10.6447,2.19398,34.1113,52.9171
1980-06-15 00:09:30,1,14.0077,1.03077,-0.553846,1.443,1,1,70689.8,178392.0,1696,0.46628827,7.2255831,357.59756,82.742096,13.6285,395.206,-9.96918,5.40575,34.1614,54.2682
1980-06-15 00:10:11,1,13.5933,-0.0466667,1.8,1.47889,1,1,66372.2,180939.0,1696,0.46629739,7.2255793,357.59125,82.743591,14.2819,395.246,-5.60331,-2.8433,33.1018,54.6542
1980-06-15 00:10:51,1,13.3857,-1.81429,2.94286,0.853086,1,1,60535.4,181005.0,1696,0.46629739,7.2255793,357.58734,82.743591,13.3619,397.054,4.4539,-13.1561,31.6128,54.6642
1980-06-15 00:11:32,1,13.35,-1.14286,3.20714,0.978285,1,1,67654.3,179776.0,1696,0.46630645,7.2255745,357.58102,82.745087,13.8824,397.388,-0.723022,-9.78941,33.4199,54.4783
1980-06-15 00:12:12,1,12.6643,-4.25714,3.53571,1.43772,1,1,65428.5,169342.0,1696,0.46631551,7.2255697,357.57861,82.746582,12.723,403.808,20.2671,-20.4991,32.8656,52.8738
1980-06-15 00:12:53,1,13.7143,-2.7,-0.428571,0.664708,1,1,66275.6,171914.0,1696,0.46631551,7.2255697,357.5708,82.746582,13.7498,397.124,6.98317,11.2798,33.0777,53.2738
1980-06-15 00:13:33,1,13.4846,-2.96923,2.1,1.56462,1,1,61198.9,175629.0,1696,0.46632457,7.225565,357.56448,82.748077,13.2699,396.269,9.56758,-9.36834,31.7855,53.8464
1980-06-15 00:14:14,1,13.0533,-3.92,0.606667,1.7361,1,1,56435.4,189781.0,1696,0.46633369,7.2255602,357.56207,82.749573,13.6979,397.532,12.9614,-1.97694,30.5235,55.9737
1980-06-15 00:14:54,2,9.346,0.184,6.894,7.20381,1,1,130726.0,143012.0,1696,0.46633369,7.2255602,357.55426,82.749573,13.6831,404.613,21.8979,14.791,46.4556,48.5897
1980-06-15 00:15:35,2,10.865,-1.1375,8.615,2.46346,1,1,91382.2,172825.0,1696,0.46634275,7.2255554,357.55185,82.751068,13.0461,409.803,-12.1588,-37.2187,38.8408,53.4147
1980-06-15 00:16:15,2,10.874,1.564,7.312,4.49306,1,1,89400.0,219664.0,1696,0.46635181,7.2255507,357.54553,82.752563,16.9155,405.436,2.65267,-24.5211,38.4173,60.2196
1980-06-15 00:16:56,2,13.488,-1.368,3.048,0.833863,1,1,58978.9,183650.0,1696,0.46635181,7.2255507,357.53772,82.752563,13.3384,394.101,2.11799,-9.6041,31.2037,55.0622
1980-06-15 00:17:36,2,13.0825,0.4525,5.2325,0.998302,1,1,70887.0,180018.0,1696,0.46636093,7.2255459,357.53531,82.754059,13.1488,396.552,-4.58888,-17.0256,34.2091,54.515
1980-06-15 00:18:17,2,13.7275,-0.9075,1.62,1.67699,1,1,70221.6,187894.0,1696,0.46636999,7.2255411,357.52899,82.755554,13.9507,393.392,-15.7265,3.35386,34.0481,55.6947
1980-06-15 00:18:57,2,13.3225,-3.53,2.015,1.09375,1,1,58322.0,174433.0,1696,0.46636999,7.2255411,357.52509,82.755554,12.8408,396.907,16.4417,-3.61347,31.0294,53.6626
1980-06-15 00:19:38,2,12.64,-5.904,-0.47,0.639769,1,1,57165.4,191607.0,1696,0.46637905,7.2255363,357.51877,82.75705,13.6857,400.442,28.4487,8.05604,30.7202,56.2424
1980-06-15 00:20:18,2,12.832,-5.284,1.214,1.05795,1,1,64006.3,189595.0,1696,0.46638817,7.2255325,357.51636,82.758545,13.415,399.284,24.98,-0.50919,32.5064,55.9463
1980-06-15 00:20:59,2,12.6575,-5.665,0.375,1.03168,1,1,65761.8,184319.0,1696,0.46638817,7.2255325,357.50854,82.758545,13.0288,398.876,22.9323,11.2852,32.9492,55.1624
1980-06-15 00:21:39,2,12.848,-4.678,1.504,1.04903,1,1,57843.9,180085.0,1696,0.46639723,7.2255278,357.50223,82.76004,12.5452,396.642,23.9428,-4.45083,30.902,54.5251
1980-06-15 00:22:20,2,13.2,-3.61,1.996,1.04481,1,1,66491.0,189149.0,1696,0.46640629,7.225523,357.49982,82.761536,13.2848,395.566,19.4557,0.284704,33.1314,55.8804
1980-06-15 00:23:00,2,12.8625,-5.23,1.61,0.156904,1,1,63692.8,182320.0,1696,0.46641535,7.2255182,357.4935,82.763016,13.6585,400.064,26.3529,-4.86806,32.4267,54.8624
1980-06-15 00:23:41,2,12.6225,-5.9775,1.225,0.443917,1,1,65281.6,191511.0,1696,0.46641541,7.2255182,357.48959,82.763031,13.7003,400.598,25.4655,-2.40279,32.8287,56.2282
1980-06-15 00:24:21,2,12.998,-5.046,1.802,0.786801,1,1,68931.8,174228.0,1696,0.46642447,7.2255135,357.48328,82.764526,13.5514,398.673,17.4716,-6.19078,33.734,53.6311
1980-06-15 00:25:02,2,11.15,-8.036,1.432,0.839833,1,1,75133.6,181923.0,1696,0.46643353,7.2255087,357.47696,82.766022,13.9752,408.967,38.6122,-1.7585,35.2188,54.8026
1980-06-15 00:25:42,1,11.5071,-7.04286,1.02143,0.957942,1,1,66084.3,188820.0,1696,0.46643353,7.2255087,357.47305,82.766022,13.2885,401.028,28.9921,-3.45664,33.0299,55.8318
1980-06-15 00:26:23,1,10.2429,-8.42143,1.27143,1.34818,1,1,69907.5,198321.0,1696,0.46644258,7.2255039,357.46674,82.767517,12.3349,407.996,44.9813,5.73828,33.9719,57.2193
1980-06-15 00:27:03,1,11.9143,-5.96429,0.785714,0.738068,1,1,70823.7,220383.0,1696,0.4664517,7.2254992,357.46432,82.769012,13.7108,398.889,31.9469,5.65238,34.1938,60.318
1980-06-15 00:27:44,1,12.6,-4.50714,0.214286,0.970509,1,1,63548.9,199523.0,1696,0.4664517,7.2254992,357.45651,82.769012,13.1251,395.617,18.7193,10.4082,32.3901,57.3924
1980-06-15 00:28:24,1,12.6286,-4.09286,1.16429,0.702546,1,1,74012.1,196791.0,1696,0.46646076,7.2254944,357.4502,82.770508,14.8861,397.509,17.2622,-2.69695,34.955,56.9981
1980-06-15 00:29:05,1,12.4,-4.45,1.5,0.881354,1,1,67545.4,227518.0,1696,0.46646982,7.2254896,357.44778,82.772003,14.2738,394.458,17.0615,-7.43005,33.393,61.2867
1980-06-15 00:29:45,1,12.28,-0.94,3.12667,2.52361,1,1,60959.7,220016.0,1696,0.46646982,7.2254896,357.43997,82.772003,13.3491,390.677,-3.53516,-17.0904,31.7234,60.2677
1980-06-15 00:30:26,1,11.8,-2.08,3.90667,1.44806,1,1,74899.3,191520.0,1696,0.46647894,7.2254858,357.43756,82.773499,13.2912,391.217,3.25024,-17.0332,35.1639,56.2295
1980-06-15 00:31:06,-1,nan,nan,nan,nan,1,-3,nan,nan,1696,0.466488,7.225481,357.43124,82.774994,nan,400.729,28.1627,6.81304,nan,nan
1980-06-15 00:31:47,2,7.125,-1.1825,11.6175,1.75457,1,1,57920.7,186567.0,1696,0.466488,7.225481,357.42343,82.774994,12.0578,418.509,11.0852,-49.8478,30.9225,55.4978
1980-06-15 00:32:27,2,7.398,7.286,9.576,1.05818,1,1,79774.0,222422.0,1696,0.46649706,7.2254763,357.42102,82.776489,14.1284,420.664,-51.457,-33.1865,36.2901,60.5964
1980-06-15 00:33:08,2,9.278,3.402,10.952,2.71838,1,1,75564.8,192603.0,1696,0.46650612,7.2254715,357.4147,82.777985,14.1566,419.281,-30.2546,-42.9095,35.3198,56.3883
1980-06-15 00:33:48,2,9.922,1.916,11.296,2.15422,1,1,83489.2,192081.0,1696,0.46650618,7.2254715,357.4108,82.777985,12.5287,414.43,-39.563,-29.0191,37.1256,56.3119
1980-06-15 00:34:29,2,10.754,1.446,10.98,1.40643,1,1,68958.2,197504.0,1696,0.46651524,7.2254667,357.40448,82.77948,12.5438,417.656,-16.1255,-41.1775,33.7404,57.1013
1980-06-15 00:35:09,2,10.1875,0.54,11.39,2.53453,1,1,68050.5,189742.0,1696,0.4665243,7.225462,357.40207,82.780975,13.2962,428.561,-26.251,-50.22,33.5177,55.9679
1980-06-15 00:35:50,2,9.15,4.666,11.016,3.00894,1,1,95383.9,207019.0,1696,0.4665243,7.225462,357.39426,82.780975,15.3426,412.739,-15.0596,-41.6437,39.6822,58.4606
1980-06-15 00:36:30,1,8.60667,2.86667,11.6733,1.56444,1,1,68093.4,223989.0,1696,0.46653336,7.2254572,357.38794,82.782471,15.38,419.783,-21.3417,-44.9375,33.5282,60.8095
1980-06-15 00:37:11,1,6.97333,2.86,13.0467,1.29724,1,1,67668.7,211153.0,1696,0.46654248,7.2254524,357.38553,82.783966,13.9197,429.623,-16.4581,-55.9452,33.4235,59.0414
1980-06-15 00:37:51,1,5.25,-1.3875,13.6,3.08785,1,1,64426.1,221036.0,1696,0.46654248,7.2254524,357.37772,82.783966,14.3507,444.763,7.80323,-60.9924,32.6129,60.4072
1980-06-15 00:38:32,-1,nan,nan,nan,nan,1,4,nan,nan,1696,0.46655154,7.2254477,357.37531,82.785461,nan,nan,nan,nan,nan,nan
1980-06-15 00:39:53,1,5.5,-2.61176,12.6353,2.4923,1,1,82246.7,224233.0,1696,0.4665606,7.2254429,357.36118,82.786957,15.7293,418.833,-13.5449,-55.0973,36.8483,60.8426
1980-06-15 00:40:33,1,5.34,-3.64667,12.7467,2.64387,1,1,87386.8,201584.0,1696,0.46656972,7.2254391,357.35876,82.788452,13.1861,443.448,21.7648,-62.6213,37.9823,57.6881
1980-06-15 00:41:14,1,6.8375,-3.9375,12.2063,1.23401,1,1,70526.3,243227.0,1696,0.46657878,7.2254343,357.35245,82.789948,16.1049,416.122,12.2631,-53.9788,34.1219,63.3671
1980-06-15 00:41:54,1,11.3267,-3.28667,8.76,1.94667,1,1,73934.7,200926.0,1696,0.46657878,7.2254343,357.34854,82.789948,13.928,404.933,6.3738,-31.9605,34.9367,57.5938
1980-06-15 00:42:35,1,9.90714,-5.80714,9.83571,1.22389,1,1,63701.9,245976.0,1696,0.46658784,7.2254295,357.34222,82.791443,15.8073,410.788,18.3992,-37.4851,32.429,63.7241
1980-06-15 00:43:15,1,11.15,-7.22143,7.71429,0.719906,1,1,65351.4,210285.0,1696,0.4665969,7.2254248,357.33981,82.792938,15.3945,410.232,26.1596,-28.6319,32.8462,58.92
1980-06-15 00:44:36,1,10.7733,-8.27333,5.82667,1.24921,1,1,65427.3,249195.0,1696,0.46660602,7.22542,357.32568,82.794434,16.9965,408.397,33.3504,-21.8659,32.8653,64.1397
1980-06-15 00:45:17,1,7.04375,-11.25,6.93125,0.714744,1,1,81614.1,225410.0,1696,0.46661508,7.2254152,357.32327,82.795929,15.9603,421.556,46.7587,-22.1696,36.7063,61.002
1980-06-15 00:45:57,1,4.58667,-10.68,9.19333,2.73801,1,1,81988.2,193137.0,1696,0.46661508,7.2254152,357.31546,82.795929,13.9062,433.581,47.5091,-33.4172,36.7903,56.4664
1980-06-15 00:46:38,1,4.26667,-12.2467,8.04,2.30082,1,1,87271.3,241725.0,1696,0.46662414,7.2254105,357.31305,82.797424,18.0815,432.942,51.1395,-23.837,37.9571,63.1711
1980-06-15 00:47:18,1,1.46,-7.95333,10.6933,7.01153,1,1,125015.0,217160.0,1696,0.46663326,7.2254057,357.30673,82.79892,15.748,453.129,57.7594,-23.8174,45.4296,59.8753
1980-06-15 00:47:59,1,-0.13125,-10.0375,11.4062,2.51373,1,1,89495.3,237783.0,1696,0.46663326,7.2254057,357.29892,82.79892,16.4801,462.251,43.9677,-49.2028,38.4378,62.654
1980-06-15 00:48:39,1,-1.08235,-12.0471,9.25882,3.23445,1,1,96368.2,219680.0,1696,0.46664232,7.2254009,357.29651,82.800415,16.3527,473.985,61.8276,-24.1486,39.8864,60.2218
1980-06-15 00:49:20,1,-1.83529,-6.80588,13.5353,2.26984,1,1,95553.3,222090.0,1696,0.46665138,7.2253962,357.29019,82.80191,16.1654,471.459,30.5564,-62.9205,39.7174,60.5512
1980-06-15 00:50:00,1,-4.34706,-9.86471,10.3941,4.19797,1,1,94188.2,238806.0,1696,0.46666044,7.2253923,357.28778,82.803391,16.9736,493.012,53.4001,-33.7587,39.4327,62.7885
1980-06-15 00:50:41,-1,nan,nan,nan,nan,1,4,nan,nan,1696,0.4666605,7.2253923,357.27997,82.803406,nan,nan,nan,nan,nan,nan
1980-06-15 00:51:21,1,-6.04444,-9.99444,10.3833,3.11786,1,1,119620.0,286788.0,1696,0.46666956,7.2253876,357.27365,82.804901,19.3869,494.647,49.8554,-29.2945,44.4385,68.8079
1980-06-15 00:52:02,-1,nan,nan,nan,nan,1,4,nan,nan,1696,0.46667862,7.2253828,357.27124,82.806396,nan,nan,nan,nan,nan,nan
1980-06-15 00:52:42,1,-3.4875,-11.1312,10.1375,3.23699,1,1,98790.6,223150.0,1696,0.46667862,7.2253828,357.26343,82.806396,16.6392,495.463,50.9675,-35.4731,40.3846,60.6955
1980-06-15 00:53:23,-1,nan,nan,nan,nan,1,4,nan,nan,1696,0.46668768,7.225378,357.26102,82.807892,nan,nan,nan,nan,nan,nan
1980-06-15 00:54:03,1,-4.3875,-13.6625,6.35,2.45401,1,1,87535.2,224366.0,1696,0.4666968,7.2253733,357.2547,82.809387,16.3533,480.836,62.9001,-19.0547,38.0145,60.8607
1980-06-15 00:54:44,1,-7.72353,-12.0412,7.4,1.5399,1,1,94641.6,212321.0,1696,0.4666968,7.2253733,357.24689,82.809387,16.0184,504.924,52.3905,-23.8072,39.5275,59.2045
1980-06-15 00:55:24,1,-4.20588,-11.3118,9.96471,3.07768,1,1,105821.0,237996.0,1696,0.46670586,7.2253685,357.24448,82.810883,18.7936,486.948,44.1977,-34.9683,41.7968,62.682
1980-06-15 00:56:05,-1,nan,nan,nan,nan,1,4,nan,nan,1696,0.46671492,7.2253637,357.23816,82.812378,nan,nan,nan,nan,nan,nan
1980-06-15 00:56:45,1,3.225,-11.125,8.36875,4.09111,1,1,92232.0,197259.0,1696,0.46671492,7.2253637,357.23425,82.812378,14.4588,458.758,59.9185,-28.586,39.021,57.0659
1980-06-15 00:57:26,1,2.71176,-13.8765,3.54118,3.87609,1,1,122630.0,243947.0,1696,0.46672404,7.225359,357.22794,82.813873,17.3605,450.18,62.0162,-15.3371,44.9942,63.4609
1980-06-15 00:58:06,1,7.34375,-12.8062,0.88125,3.03184,1,1,87627.5,208307.0,1696,0.4667331,7.2253542,357.22552,82.815369,14.9497,434.104,62.7979,15.8697,38.0345,58.6421
1980-06-15 00:58:47,1,6.59375,-13.7312,2.95625,1.02966,1,1,82700.8,223303.0,1696,0.4667331,7.2253542,357.21771,82.815369,16.8705,430.754,56.1718,-3.7804,36.9499,60.7163
1980-06-15 00:59:27,1,6.46,-13.78,2.84667,0.623823,1,1,85391.3,214070.0,1696,0.46674216,7.2253494,357.2114,82.816864,15.6346,433.795,57.9674,-2.58236,37.5461,59.4477
1980-06-15 01:00:08,1,3.11765,-14.3647,4.61765,2.16562,1,1,96782.6,210696.0,1696,0.46675128,7.2253456,357.20898,82.818359,15.6602,442.872,58.576,-9.24402,39.9721,58.9775
1980-06-15 01:00:48,1,4.28667,-14.2,3.74,2.86488,1,1,78280.4,201549.0,1696,0.46675128,7.2253456,357.20117,82.818359,15.1856,448.154,62.2651,-13.041,35.9488,57.6831
1980-06-15 01:01:29,1,4.51176,-13.8765,4.87647,1.14837,1,1,108513.0,212829.0,1696,0.46676034,7.2253399,357.19876,82.819839,17.2831,434.667,58.0111,-10.4532,42.3253,59.2753
1980-06-15 01:02:09,1,3.89375,-14.0312,5.20625,2.2499,1,1,83444.1,242781.0,1696,0.4667694,7.2253351,357.19244,82.821335,19.3205,439.121,55.2789,-9.93693,37.1155,63.309
1980-06-15 01:02:50,1,3.35882,-14.0294,6.28824,1.66051,1,1,93412.5,204923.0,1696,0.4667694,7.2253351,357.18463,82.821335,17.2419,444.349,53.0592,-15.9151,39.27,58.1639
1980-06-15 01:03:30,1,4.11875,-12.6188,6.7125,3.8328,1,1,79157.1,194053.0,1696,0.46677846,7.2253294,357.18222,82.82283,14.5009,437.44,51.2966,-21.5374,36.1496,56.6002
1980-06-15 01:04:11,1,1.85333,-12.2533,8.65333,0.995724,1,1,80824.6,227997.0,1696,0.46678758,7.2253246,357.17587,82.82431,16.9151,443.637,54.1886,-27.011,36.5283,61.3512
1980-06-15 01:04:51,1,-0.5125,-11.0437,10.2188,1.18852,1,1,88213.8,216894.0,1696,0.46678758,7.2253246,357.17197,82.82431,15.6578,454.944,45.6044,-40.9042,38.1616,59.8386
1980-06-15 01:05:32,1,2.37647,-11.8235,8.71765,1.20357,1,1,87109.3,220668.0,1696,0.46679664,7.2253189,357.16565,82.825806,16.2254,437.987,48.4626,-29.1892,37.9219,60.357
1980-06-15 01:06:12,1,1.87333,-12.42,8.82667,0.602366,1,1,79505.7,192819.0,1696,0.4668057,7.2253141,357.16324,82.827301,15.1996,451.284,49.7433,-29.6398,36.2291,56.4199
1980-06-15 01:06:53,1,0.211765,-11.7176,10.0412,0.630757,1,1,86787.0,204620.0,1696,0.4668057,7.2253141,357.15543,82.827301,15.7462,455.276,42.2088,-39.1899,37.8517,58.1209
1980-06-15 01:07:33,1,1.01875,-12.4187,9.15625,0.484002,1,1,82493.5,195916.0,1696,0.46681482,7.2253084,357.14911,82.828781,14.5213,451.547,46.8417,-34.5573,36.9035,56.8713
1980-06-15 01:08:14,1,3.47059,-4.72353,12.9412,2.43005,1,1,79957.5,222758.0,1696,0.46682388,7.2253036,357.1467,82.830276,15.4469,427.696,12.2572,-57.6242,36.3319,60.6422
1980-06-15 01:08:54,1,4.9,-9.33333,9.82,1.71459,1,1,83284.6,229306.0,1696,0.46682388,7.2253036,357.13889,82.830276,15.9027,428.731,40.0498,-41.8386,37.08,61.5269
1980-06-15 01:09:35,1,0.79375,-10.2937,10.6625,2.20704,1,1,85465.9,217970.0,1696,0.46683294,7.2252979,357.13647,82.831772,16.2815,464.298,44.1769,-39.1896,37.5625,59.9868
1980-06-15 01:10:15,1,2.93125,-8.43125,11.7562,1.76083,1,1,71876.4,210825.0,1696,0.46684206,7.2252932,357.13013,82.833252,13.9537,449.221,26.5011,-61.945,34.447,58.9955
1980-06-15 01:10:56,1,2.74375,-6.85,12.6188,1.338,1,1,72484.2,220944.0,1696,0.46684206,7.2252932,357.12231,82.833252,15.1285,444.387,32.635,-49.9935,34.5923,60.3947
1980-06-15 01:11:36,1,4.39375,-6.625,11.3938,1.98508,1,1,89686.0,221513.0,1696,0.46685112,7.2252874,357.1199,82.834747,15.4874,438.416,42.1337,-42.8128,38.4787,60.4724
1980-06-15 01:12:17,1,6.38,-5.74,10.6867,2.35255,1,1,72606.3,199767.0,1696,0.46686018,7.2252827,357.11359,82.836243,13.2223,426.396,31.2264,-52.5272,34.6214,57.4275
1980-06-15 01:12:57,1,8.22,-5.66667,8.54,4.55451,1,1,77256.2,216556.0,1696,0.46686018,7.2252827,357.10968,82.836243,14.4307,423.203,33.8308,-50.1002,35.7128,59.7919
1980-06-15 01:13:38,-1,nan,nan,nan,nan,1,4,nan,nan,1696,0.46686924,7.2252769,357.10336,82.837723,nan,nan,nan,nan,nan,nan
1980-06-15 01:14:18,1,9.89286,-5.79286,7.55,1.54165,1,1,67875.8,214063.0,1696,0.46687835,7.2252722,357.09705,82.839218,14.0643,406.678,24.8095,-29.2771,33.4746,59.4469
1980-06-15 01:14:59,1,10.3,-6.64,6.81333,1.33699,1,1,67251.5,191839.0,1696,0.46687835,7.2252722,357.09314,82.839218,12.937,405.831,27.2016,-27.5183,33.3203,56.2764
1980-06-15 01:15:39,1,4.80667,-9.03333,9.66667,1.44213,1,1,71579.3,174610.0,1696,0.46688741,7.2252665,357.08682,82.840714,13.0005,422.279,36.3334,-35.4794,34.3757,53.6899
1980-06-15 01:16:20,1,4.35333,-7.52667,10.92,2.07767,1,1,81224.9,182230.0,1696,0.46689647,7.2252617,357.08438,82.842194,12.9691,433.708,17.9554,-55.0455,36.6187,54.8489
1980-06-15 01:17:00,1,4.11333,-9.58,9.28,1.86486,1,1,78841.1,203767.0,1696,0.46690559,7.225256,357.07806,82.843689,15.0737,431.237,38.1953,-38.6246,36.0773,57.9996
1980-06-15 01:17:41,1,1.425,-8.89375,10.5312,2.12388,1,1,97135.0,205261.0,1696,0.46690559,7.225256,357.07025,82.843689,14.399,436.838,45.8545,-30.07,40.0448,58.2119
1980-06-15 01:18:21,1,2.41875,-8.2375,11.1062,0.791804,1,1,74997.0,216137.0,1696,0.46691465,7.2252512,357.06784,82.845184,14.2,434.302,29.4868,-47.0054,35.1868,59.7341
1980-06-15 01:19:01,1,2.5125,-7.25625,11.3938,2.00228,1,1,71619.8,193799.0,1696,0.46692371,7.2252455,357.06152,82.846664,12.859,438.718,33.6525,-45.7635,34.3854,56.5632
1980-06-15 01:19:41,1,3.15333,-7.29333,11.7467,1.05338,1,1,85836.7,198483.0,1696,0.46692371,7.2252455,357.05762,82.846664,14.0152,437.63,31.3754,-43.4617,37.6439,57.2426
1980-06-15 01:20:22,-1,nan,nan,nan,nan,1,4,nan,nan,1696,0.46693283,7.2252407,357.0513,82.84816,nan,nan,nan,nan,nan,nan
1980-06-15 01:21:02,1,9.30714,-2.57857,6.59286,7.73684,1,1,83505.6,172813.0,1696,0.46694189,7.225235,357.04889,82.849655,14.3882,386.796,-7.15522,-12.817,37.1292,53.4129
1980-06-15 02:04:55,-1,nan,nan,nan,nan,1,3,nan,nan,1696,0.46733224,7.225008,356.7067,82.913712,nan,387.064,-6.98367,-13.6018,nan,nan
1980-06-15 02:06:16,-1,nan,nan,nan,nan,1,3,nan,nan,1696,0.46735036,7.2249966,356.69794,82.916687,nan,385.77,-4.41667,6.89435,nan,nan
1980-06-15 02:06:56,-1,nan,nan,nan,nan,1,3,nan,nan,1696,0.46735042,7.2249966,356.69403,82.916687,nan,387.503,-8.89023,32.1952,nan,nan
1980-06-15 02:09:38,1,13.9,0.7,2.7,0.0,1,1,68767.2,172797.0,1696,0.4673776,7.2249784,356.67114,82.921143,14.5334,384.705,-14.3538,1.92756,33.6937,53.4105
1980-06-15 02:10:20,1,13.4357,1.45714,3.40714,0.632213,1,1,57868.3,179389.0,1696,0.46738672,7.2249727,356.66873,82.922623,14.2668,384.566,-19.1831,-8.153,30.9085,54.4197
1980-06-15 02:11:00,1,13.5462,2.47692,1.53846,1.23806,1,1,70676.9,167116.0,1696,0.46739578,7.224967,356.66238,82.924103,13.7692,386.209,-32.5716,1.58739,34.1583,52.5251
1980-06-15 02:13:01,-1,nan,nan,nan,nan,1,3,nan,nan,1696,0.46741396,7.2249556,356.64584,82.927078,nan,382.585,-15.1613,-2.74869,nan,nan
1980-06-15 02:14:22,-1,nan,nan,nan,nan,1,3,nan,nan,1696,0.46742302,7.2249489,356.63559,82.928558,nan,382.367,-6.71055,4.26181,nan,nan
1980-06-15 02:15:02,1,13.3462,3.34615,1.20769,2.01406,1,1,71740.6,188334.0,1696,0.46743208,7.2249432,356.63318,82.930054,14.4224,386.771,-37.3834,-0.409877,34.4144,55.7599
1980-06-15 02:15:44,1,13.6643,-0.05,1.27857,0.44326,1,1,61131.3,163128.0,1696,0.46743208,7.2249432,356.62537,82.930054,12.9989,381.309,-9.67695,2.72868,31.768,51.8945
1980-06-15 02:17:05,1,13.6429,-0.0928571,2.23571,1.03564,1,1,64017.2,164605.0,1696,0.46745026,7.2249317,356.61661,82.933014,13.4819,384.274,-11.089,-5.04801,32.5092,52.1291
1980-06-15 02:17:45,1,13.3786,-0.871429,3.47143,0.655783,1,1,65588.6,170229.0,1696,0.46745026,7.2249317,356.60883,82.933029,13.6382,384.147,-6.27379,-12.0104,32.9058,53.0121
1980-06-15 02:18:26,1,13.4867,-0.113333,3.16667,0.352893,1,1,65883.5,170891.0,1696,0.46745932,7.224926,356.60638,82.934509,13.7512,384.697,-10.6667,-9.90068,32.9797,53.115
1980-06-15 02:19:06,1,12.9308,-1.00769,4.32308,0.601281,1,1,58942.2,181181.0,1696,0.46746844,7.2249203,356.60007,82.935989,14.2799,386.594,-2.91038,-12.9159,31.194,54.6909
1980-06-15 02:19:47,1,13.1467,-0.806667,4.07333,0.92,1,1,67308.6,167147.0,1696,0.46746844,7.2249203,356.59225,82.935989,13.7382,385.198,-5.2539,-14.0364,33.3344,52.5299
1980-06-15 02:20:27,1,12.6231,-2.88462,4.38462,0.624926,1,1,62896.9,174416.0,1696,0.4674775,7.2249146,356.58984,82.937485,13.8082,387.244,3.17995,-14.267,32.2235,53.6601
1980-06-15 02:21:08,1,11.2857,-4.49286,5.63571,0.825425,1,1,59140.1,168384.0,1696,0.46748656,7.2249079,356.5835,82.938965,13.5653,395.944,19.4357,-23.2126,31.2463,52.7239
1980-06-15 02:21:48,1,11.6933,-3.74667,5.06667,1.95891,1,1,68211.6,169448.0,1696,0.46748656,7.2249079,356.57959,82.938965,13.2023,394.208,18.6243,-19.516,33.5573,52.8903
1980-06-15 02:23:49,1,11.6,6.78333,2.1,2.15671,1,1,75351.4,153156.0,1696,0.46750474,7.2248964,356.56305,82.94194,13.3941,391.505,-34.4333,-19.4879,35.2699,50.2834
1980-06-15 02:25:10,1,11.7833,6.3,4.25,0.361325,1,1,72312.0,184011.0,1696,0.46752286,7.224885,356.55429,82.944901,11.8135,420.443,-47.7304,17.5798,34.5512,55.1163
1980-06-15 02:28:50,-1,nan,nan,nan,nan,1,4,nan,nan,1696,0.4675501,7.2248669,356.52359,82.949356,nan,nan,nan,nan,nan,nan
1980-06-15 02:29:13,1,13.5125,-1.3625,0.725,0.838339,1,1,61390.6,164512.0,1696,0.46755922,7.2248611,356.52118,82.950851,12.897,380.13,-10.4225,-4.685,31.8353,52.1143
1980-06-15 02:29:53,1,13.5923,-0.538462,1.10769,0.551169,1,1,58873.6,177408.0,1696,0.46755922,7.2248611,356.51727,82.950851,13.8591,380.453,-8.13274,0.0622032,31.1758,54.1184
1980-06-15 02:31:14,1,12.4333,2.13333,4.33333,0.282843,1,1,70641.5,179278.0,1696,0.46757734,7.2248497,356.50461,82.953812,13.7831,386.067,-21.242,-18.1613,34.1498,54.4028
1980-06-15 02:31:56,1,11.2846,3.79231,6.63846,0.946935,1,1,73814.8,168631.0,1696,0.46757734,7.2248497,356.5007,82.953812,13.4849,392.386,-23.9898,-26.8182,34.9084,52.7626
1980-06-15 02:32:36,1,11.4067,3.42667,7.08667,0.892786,1,1,75902.8,164814.0,1696,0.46758646,7.224844,356.49438,82.955307,14.4413,391.372,-22.84,-27.915,35.3987,52.1621